Home > Time Zones > World Clock > Weather > Greece > Ilio > Past weeks

Flag for Greece Weather past 2 weeks in Ilio, Greece

Now
79 °F

Clear.


Feels Like: 80 °F
Forecast: 73 / 92 °F
Wind: 5 mph from Northwest

Location: Elefsis Airport

Current Time: Jul 26, 2014 at 2:46:12 AM

Latest Report: Jul 26, 2014 at 1:50 AM


Visibility: 10 mi

Pressure: 29.83 "Hg

Humidity: 58%

Dew point: 63 °F

Location of IlioLocation

Historic Weather in Ilio — Graph

°F

Ilio temperature yesterday

Maximum temperature yesterday: 95 °F (at 3:20 PM)
Minimum temperature yesterday: 72 °F (at 5:50 AM)
Average temperature yesterday: 83 °F

Past Weeks' High & Low Weather Summary

 TemperatureHumidityPressure
High97 °F (Jul 21, 2:50 PM)88% (Jul 19, 11:20 PM)29.92 "Hg (Jul 19, 11:20 PM)
Low68 °F (Jul 17, 3:50 AM)16% (Jul 12, 3:50 PM)29.59 "Hg (Jul 11, 5:50 PM)
Average81 °F45%29.80 "Hg
* Reported Jul 11 1:20 AM — Jul 26 1:20 AM, Ilio, Weather by CustomWeather, © 2014

Note: Actual official high and low records may vary slightly from our data, if they occured in-between our weather recording intervals... More about our weather records

Advertising

Ilio weather history for previous 24 hours

 ConditionsComfort  
Time TempWeatherWind HumidityBarometerVisibility
1:20 AM
Jul 26
79 °FClear.5 mph58%29.83 "Hg10 mi
12:50 AM81 °FClear.6 mph54%29.83 "Hg10 mi
12:20 AM81 °FClear.7 mph54%29.83 "Hg10 mi
11:50 PM
Jul 25
81 °FClear.7 mph51%29.83 "Hg10 mi
11:20 PM81 °FClear.6 mph48%29.83 "Hg10 mi
10:50 PM82 °FClear.5 mph45%29.83 "Hg10 mi
10:20 PM82 °FClear.No wind48%29.83 "Hg10 mi
9:50 PM82 °FClear.No wind51%29.83 "Hg10 mi
9:20 PM84 °FSunny.6 mph51%29.80 "Hg10 mi
8:50 PM84 °FSunny.10 mph51%29.80 "Hg10 mi
8:20 PM86 °FPassing clouds.7 mph49%29.77 "HgN/A
7:50 PM86 °FPassing clouds.6 mph49%29.77 "HgN/A
7:20 PM88 °FPassing clouds.7 mph46%29.77 "HgN/A
6:50 PM88 °FScattered clouds.3 mph43%29.77 "HgN/A
6:20 PM90 °FScattered clouds.6 mph41%29.77 "HgN/A
5:50 PM90 °FScattered clouds.7 mph38%29.77 "HgN/A
4:50 PM91 °FScattered clouds.10 mph32%29.74 "HgN/A
4:20 PM95 °FScattered clouds.3 mph30%29.77 "HgN/A
3:20 PM95 °FScattered clouds.6 mph25%29.77 "HgN/A
2:50 PM93 °FScattered clouds.5 mph26%29.77 "HgN/A
2:20 PM93 °FScattered clouds.6 mph28%29.77 "HgN/A
1:50 PM93 °FScattered clouds.7 mph28%29.77 "HgN/A
1:20 PM93 °FScattered clouds.7 mph26%29.80 "HgN/A
12:50 PM91 °FScattered clouds.9 mph28%29.80 "HgN/A
12:20 PM91 °FPassing clouds.9 mph30%29.80 "HgN/A
11:50 AM90 °FPassing clouds.6 mph31%29.80 "HgN/A
11:20 AM90 °FPassing clouds.8 mph31%29.80 "HgN/A
10:50 AM88 °FSunny.7 mph33%29.80 "Hg10 mi
10:20 AM88 °FSunny.7 mph33%29.80 "Hg10 mi
9:50 AM86 °FSunny.5 mph38%29.80 "Hg10 mi
9:20 AM84 °FSunny.5 mph40%29.80 "Hg10 mi
8:50 AM84 °FSunny.3 mph40%29.80 "Hg10 mi
8:20 AM82 °FSunny.No wind45%29.80 "Hg10 mi
7:50 AM79 °FSunny.No wind54%29.80 "Hg10 mi
7:20 AM75 °FClear.No wind61%29.80 "Hg10 mi
6:50 AM73 °FClear.No wind65%29.77 "Hg10 mi
6:20 AM75 °FClear.No wind61%29.77 "Hg10 mi
5:50 AM72 °FClear.No wind69%29.77 "Hg10 mi
5:20 AM73 °FClear.No wind65%29.77 "Hg10 mi
4:50 AM73 °FClear.No wind65%29.77 "Hg10 mi
4:20 AM75 °FClear.No wind61%29.77 "Hg10 mi
3:50 AM73 °FClear.No wind69%29.77 "Hg10 mi
3:20 AM75 °FClear.No wind65%29.77 "Hg10 mi
2:50 AM73 °FClear.No wind69%29.77 "Hg10 mi
2:20 AM73 °FClear.No wind69%29.77 "Hg10 mi
Weather by CustomWeather, © 2014

See weather overviewHow to use our weather pages